This is the latest recevied weather packets stored in our database for station/object WB5TZJ. If no packets are shown the sender has not sent any weather packets the latest 10 day(s).
| Time | Temp. | Humidity | Pressure | Rain* | Wind** | Luminosity | Snow |
|---|---|---|---|---|---|---|---|
| 1777693245 | 22.78° C | 46% | 1017.2 hPa | 0 mm | - | - | - |
| 1777692644 | 22.78° C | 48% | 1017.2 hPa | 0 mm | - | - | - |
| 1777692044 | 22.78° C | 45% | 1017.2 hPa | 0 mm | - | - | - |
| 1777691445 | 22.78° C | 48% | 1017.2 hPa | 0 mm | - | - | - |
| 1777690845 | 22.78° C | 45% | 1017.2 hPa | 0 mm | - | - | - |
| 1777690245 | 22.78° C | 48% | 1016.5 hPa | 0 mm | - | - | - |
| 1777689645 | 22.78° C | 47% | 1016.5 hPa | 0 mm | - | - | - |
| 1777689045 | 22.78° C | 48% | 1016.2 hPa | 0 mm | - | - | - |
| 1777688445 | 22.78° C | 48% | 1015.5 hPa | 0 mm | - | - | - |
| 1777687845 | 22.78° C | 46% | 1015.2 hPa | 0 mm | - | - | - |
| 1777687245 | 22.78° C | 49% | 1014.9 hPa | 0 mm | - | - | - |
| 1777686645 | 22.78° C | 46% | 1014.9 hPa | 0 mm | - | - | - |
| 1777686045 | 22.78° C | 47% | 1014.5 hPa | 0 mm | - | - | - |
| 1777685445 | 22.78° C | 50% | 1014.2 hPa | 0 mm | - | - | - |
| 1777684845 | 22.78° C | 47% | 1013.8 hPa | 0 mm | - | - | - |
| 1777684245 | 22.78° C | 47% | 1013.5 hPa | 0 mm | - | - | - |
| 1777683645 | 22.78° C | 49% | 1013.2 hPa | 0 mm | - | - | - |
| 1777683045 | 22.78° C | 49% | 1013.2 hPa | 0 mm | - | - | - |
| 1777682445 | 22.78° C | 47% | 1012.8 hPa | 0 mm | - | - | - |
| 1777681845 | 22.78° C | 50% | 1012.5 hPa | 0 mm | - | - | - |
| 1777681245 | 22.22° C | 47% | 1012.1 hPa | 0 mm | - | - | - |
| 1777680645 | 22.78° C | 48% | 1012.1 hPa | 0 mm | - | - | - |
| 1777680045 | 22.78° C | 49% | 1012.1 hPa | 0 mm | - | - | - |
| 1777679445 | 22.22° C | 51% | 1012.1 hPa | 0 mm | - | - | - |
| 1777678845 | 22.22° C | 48% | 1012.1 hPa | 0 mm | - | - | - |
* Rain latest hour (hover to see other rain measurements)
** Current wind speed in m/s (hover to see current wind gust speed)